Weather observations for the past three days for
Hondo, Hondo Municipal Airport
Imperial (Metric)
Date Time (cdt) Wind (mph) Vis. (mi.) Weather Sky Cond. Temperature (ºF) Relative Humidity Wind Chill (°F) Heat Index (°F) Pressure Precipitation (in)
Air Dwpt 6 hour altimeter (in) sea level (mb) 1 hr 3 hr 6 hr
Max. Min.
15 05:51 SE 6 10.00 Fair CLR 77 73.9 90% 78 30.06 1016.1
15 04:51 SE 7 10.00 Fair CLR 78.1 73.9 87% 81 30.05 1015.8
15 03:51 SE 5 10.00 Fair CLR 78.1 73.9 87% 81 30.05 1016.0
15 02:51 S 7 10.00 Fair CLR 78.1 73 85% 81 30.06 1016.3
15 01:51 SE 7 10.00 Fair CLR 79 73 82% 82 30.08 1017.0
15 00:51 SE 8 10.00 Fair CLR 80.1 73 87.1 80.1 79% 84 30.09 1017.1
14 23:51 SE 8 10.00 Fair CLR 81 72 74% 85 30.09 1017.2
14 22:51 SE 9 10.00 Fair CLR 82 71.1 69% 86 30.08 1016.8
14 21:51 SE 8 10.00 Fair CLR 82.9 69.1 63% 87 30.07 1016.6
14 20:51 E 7 10.00 Fair CLR 84 69.1 61% 88 30.07 1016.7
14 19:51 SE 9 10.00 Fair CLR 87.1 68 53% 91 30.08 1016.8
14 18:51 S 16 10.00 Fair CLR 87.1 66.9 91 87.1 51% 90 30.08 1016.9
14 17:51 SE 13 10.00 Fair CLR 90 66 45% 93 30.07 1016.7
14 16:51 SE 12 10.00 Fair CLR 89.1 69.1 52% 94 30.09 1017.4
14 15:51 S 9 10.00 Fair CLR 89.1 66.9 48% 92 30.11 1018.1
14 14:51 S 12 10.00 Fair CLR 89.1 66 47% 92 30.13 1018.7
14 13:51 S 8 10.00 Fair CLR 88 69.1 54% 92 30.14 1019.1
14 12:51 SE 10 G 17 10.00 Fair CLR 88 70 89.1 77 55% 93 30.16 1019.6
14 11:51 SE 8 10.00 Fair CLR 84.9 70 61% 89 30.17 1020.0
14 10:51 S 7 10.00 Fair CLR 82.9 71.1 67% 88 30.17 1020.1
14 09:51 S 7 10.00 Mostly Cloudy BKN017 BKN023 80.1 73 79% 84 30.18 1020.5
14 08:51 S 6 10.00 Overcast BKN010 OVC016 78.1 75 90% 81 30.18 1020.4
14 07:51 SE 5 10.00 Partly Cloudy SCT012 77 73.9 90% 78 30.16 1019.9
14 06:51 SE 6 10.00 Overcast FEW008 OVC018 77 75 79 77 94% 78 30.15 1019.2
14 05:51 SE 3 10.00 Overcast BKN008 OVC013 78.1 75 90% 81 30.14 1019.1
14 04:51 SE 8 10.00 Overcast BKN008 OVC014 77 75 94% 78 30.14 1018.9
14 03:51 SE 8 10.00 Overcast BKN008 OVC013 78.1 75 90% 81 30.14 1018.8
14 02:51 SE 9 10.00 Mostly Cloudy BKN009 78.1 75 90% 81 30.15 1019.5
14 01:51 SE 13 10.00 Overcast OVC012 79 75 88% 83 30.17 1020.0
14 00:51 E 8 10.00 Overcast BKN014 OVC020 78.1 73.9 87.1 78.1 87% 81 30.17 1020.2
13 23:51 SE 10 10.00 A Few Clouds FEW029 79 73.9 85% 83 30.17 1019.9
13 22:51 SE 13 10.00 Fair CLR 80.1 73 79% 84 30.15 1019.5
13 21:51 E 14 10.00 Fair CLR 81 73 77% 86 30.15 1019.3
13 20:51 SE 12 10.00 Fair CLR 82.9 72 70% 88 30.13 1018.8
13 19:51 SE 15 10.00 Fair CLR 84.9 71.1 63% 90 30.12 1018.3
13 18:51 SE 13 10.00 Fair CLR 87.1 73 87.1 80.1 63% 95 30.11 1018.2
13 17:51 E 12 10.00 A Few Clouds FEW034 FEW044 87.1 73 63% 95 30.12 1018.4
13 16:51 E 8 10.00 Partly Cloudy SCT033 87.1 73 63% 95 30.14 1019.0
13 15:51 E 6 10.00 Mostly Cloudy BKN029 84.9 73 68% 92 30.16 1019.6
13 14:51 SE 5 10.00 Partly Cloudy FEW026 FEW033 SCT040 82 72 72% 87 30.17 1020.1
13 13:51 SE 10 10.00 Mostly Cloudy SCT019 SCT027 BKN120 82 73.9 77% 88 30.18 1020.6
13 12:51 S 7 10.00 Light Rain SCT015 BKN042 OVC100 80.1 75 82 73 85% 85 30.2 1021.1 0.01 0.02
13 11:51 S 9 9.00 Light Rain SCT023 BKN033 OVC110 80.1 75 85% 85 30.21 1021.4 0.01
13 10:51 SE 10 10.00 Overcast BKN015 OVC021 81 73 77% 86 30.2 1021.1
13 09:51 SE 9 10.00 Mostly Cloudy BKN009 79 73 82% 82 30.19 1020.9
13 08:51 E 7 10.00 Overcast OVC008 75.9 72 88% 76 30.19 1020.7
13 07:51 E 6 10.00 Overcast OVC012 75 71.1 88% 75 30.17 1020.2
13 06:51 NE 6 10.00 Partly Cloudy SCT016 73 71.1 75 73 94% 30.15 1019.5
13 05:51 E 5 10.00 Fair CLR 73 71.1 94% 30.14 1019.2
13 04:51 NE 3 10.00 A Few Clouds FEW009 73 71.1 94% 30.13 1018.7
13 03:51 NE 3 10.00 Mostly Cloudy BKN012 73.9 70 88% 30.13 1018.6
13 02:51 NE 5 10.00 Overcast SCT014 BKN019 OVC041 73.9 70 88% 30.14 1019.1
13 01:51 E 3 10.00 Overcast SCT020 BKN025 OVC120 73.9 70 88% 30.14 1019.0
13 00:51 SE 6 10.00 Fair CLR 73.9 70 81 73.9 88% 30.14 1019.0
12 23:51 E 7 10.00 A Few Clouds FEW027 73.9 70 88% 30.14 1019.0
12 22:51 SE 9 10.00 Fair CLR 75 70 84% 75 30.12 1018.5
12 21:51 SE 13 10.00 Fair CLR 77 70 79% 79 30.11 1018.1
12 20:51 E 10 10.00 Fair CLR 77 70 79% 79 30.1 1017.7
12 19:51 SE 10 10.00 Fair CLR 79 70 74% 82 30.08 1017.0
12 18:51 SE 16 10.00 Fair CLR 81 70 93 81 69% 84 30.06 1016.4 0.01
12 17:51 E 14 10.00 Overcast BKN065 OVC090 82.9 70 65% 87 30.07 1016.8
12 16:51 E 12 10.00 Thunderstorm in Vicinity FEW050 FEW065 BKN110 84.9 70 61% 89 30.06 1016.4
12 15:51 SE 9 10.00 Overcast BKN060 BKN070 OVC110 87.1 70 57% 92 30.06 1016.4 0.01
12 14:51 SE 13 10.00 Mostly Cloudy BKN060 BKN095 84.9 72 65% 91 30.06 1016.4 0.01
12 13:51 SW 8 10.00 A Few Clouds FEW048 91.9 66.9 44% 95 30.07 1016.4
12 12:51 S 6 10.00 A Few Clouds FEW065 89.1 69.1 89.1 73.9 52% 94 30.09 1017.3
12 11:51 S 9 10.00 A Few Clouds FEW028 FEW055 87.1 69.1 55% 91 30.11 1017.9
12 10:51 S 8 10.00 Partly Cloudy FEW022 SCT032 82 69.1 65% 85 30.12 1018.3
12 09:51 S 9 10.00 Mostly Cloudy SCT017 BKN030 BKN035 80.1 71.1 74% 84 30.12 1018.3
12 08:51 S 8 10.00 Mostly Cloudy BKN014 BKN021 78.1 72 82% 80 30.1 1017.7
12 07:51 E 5 10.00 Overcast OVC017 75.9 71.1 85% 76 30.07 1016.6
12 06:51 NE 5 10.00 Overcast OVC015 73.9 70 75 71.1 88% 30.06 1016.2
Date Time (cdt) Wind (mph) Vis. (mi.) Weather Sky Cond. Air Dwpt Max. Min. Relative Humidity Wind Chill (°F) Heat Index (°F) altimeter (in) sea level (mb) 1 hr 3 hr 6 hr
6 hour
Temperature (ºF) Pressure Precipitation (in)